Volver al catálogo

KUIPER-00222

ActivoComunicacionesLEO
NORAD 67782·PAYLOAD·🇺🇸 United States

Lanzado Feb 12, 2026 desde Guiana Space Centre

Loading…

Próximos Pases (próximas 24 horas)

TLE

ActualizadoSource: CelesTrak SupGP

Época: Sep 14, 2026, 20:55 UTC

1 67782C 26030U   26257.87187500  .00003937  00000+0  51542-3 0  2577
2 67782  51.8972  84.1829 0001007 113.8237 181.8567 14.79921362    10

Sigue KUIPER-00222 en tiempo real con AllMySat

Download on the App Store